Wind_Speed
20 19 17 17 18 18 18 19 19 18 18 17 17 17 17 17 17 16 16 16 16 16 16 16 15 15 15 14 14 14 14 14 14 13 13 13 12 12 11 10 11 12 13 12 12 11 11 11 11 11 11 11 12 12 12 12 12 11 11 10 10 9 8 6 5 8 12 11 11 12 11 8 6 7 7 7 8 7 7 7 7 8 9 8 7
19 20 18 17 18 17 17 19 19 19 19 19 18 18 17 17 17 16 16 17 16 16 17 17 16 16 16 15 15 14 14 14 14 14 14 13 13 13 13 12 13 13 14 13 13 12 12 12 12 12 12 13 13 13 13 13 12 12 12 11 11 10 9 10 9 9 11 11 11 12 10 7 7 7 7 9 9 8 9 9 8 9 9 6 5
17 18 19 19 18 16 16 17 18 19 19 19 20 19 18 17 17 17 17 16 16 17 17 17 17 17 17 16 16 15 15 15 15 15 14 14 14 13 13 13 14 13 14 14 14 14 13 13 14 13 13 13 13 13 13 12 12 12 13 12 12 10 9 10 10 10 11 11 11 11 9 8 8 9 10 11 9 9 10 9 9 10 8 7 6
17 16 17 18 17 17 17 17 17 19 19 20 20 20 19 18 17 18 17 16 16 16 16 17 17 17 17 17 17 16 16 16 16 16 15 15 15 15 14 14 14 14 14 15 14 14 14 14 14 14 14 13 13 13 13 12 12 12 12 12 12 12 10 10 11 11 11 11 12 12 12 10 10 11 13 13 12 11 10 10 11 11 8 8 9
14 15 17 18 17 18 18 18 18 18 18 19 19 19 19 19 19 18 18 17 17 16 17 17 17 17 18 18 18 18 17 17 17 16 16 15 15 15 15 15 15 15 15 15 15 14 15 15 15 14 14 14 14 14 13 13 13 13 12 11 11 11 11 10 9 9 9 10 11 13 14 12 12 13 14 15 17 16 13 11 10 10 9 8 8
10 12 14 16 18 18 18 18 18 18 19 19 19 19 19 19 19 18 18 17 17 17 17 17 17 18 18 18 19 19 18 18 17 17 17 16 16 16 15 15 15 15 15 15 16 16 16 16 16 15 15 15 15 14 13 13 13 12 12 11 10 10 10 9 7 7 9 10 10 12 14 12 12 13 11 12 15 16 16 15 13 10 10 9 8
10 12 13 13 15 17 20 20 18 18 18 18 18 18 18 18 19 18 17 17 17 17 17 17 17 17 17 18 19 19 19 18 18 18 17 17 16 16 16 16 15 15 15 15 16 16 16 17 16 16 16 16 15 15 14 14 13 12 12 11 10 8 8 8 8 9 10 10 9 11 13 12 12 13 11 9 11 11 13 16 16 14 11 8 8
13 14 15 15 16 16 17 18 19 18 16 16 16 17 17 17 16 15 14 14 15 16 16 18 17 16 17 20 21 20 19 19 18 18 18 18 17 17 16 16 16 15 14 15 16 16 16 17 16 16 16 16 14 14 16 15 12 10 10 10 9 9 7 5 6 7 8 8 8 9 10 10 10 10 10 9 9 11 11 12 18 21 15 7 5
12 13 15 17 17 18 18 17 17 18 16 15 14 14 16 13 10 11 13 13 13 13 13 16 18 18 19 20 20 19 19 19 19 19 18 17 17 17 17 16 15 15 15 16 17 16 16 17 16 15 17 17 14 15 17 16 12 10 10 9 9 11 9 6 6 6 6 8 9 8 10 11 9 7 9 11 10 11 13 12 19 28 22 9 5
8 10 12 15 16 17 17 17 20 21 16 14 12 12 15 12 8 10 14 14 16 17 15 16 18 19 19 18 18 18 18 19 19 19 19 18 16 16 16 14 14 15 14 14 15 15 15 17 16 15 15 15 15 16 18 19 18 18 17 14 11 12 11 10 10 8 7 9 10 11 11 11 9 5 8 12 10 10 14 13 16 25 21 10 6
8 7 9 12 12 13 15 16 20 22 17 14 13 13 15 14 12 14 16 16 17 19 18 18 18 18 18 19 19 19 19 19 18 17 19 20 18 15 14 12 13 15 15 13 13 14 15 17 17 16 16 15 15 16 18 22 23 23 24 20 17 16 15 13 12 11 11 12 13 13 11 10 10 7 8 12 10 9 11 9 10 18 16 7 5
8 6 7 9 9 10 15 17 19 21 20 17 15 14 15 14 15 18 18 17 17 17 18 19 20 18 16 16 16 15 13 14 15 15 15 17 18 17 15 13 13 15 15 13 12 13 16 17 15 15 15 15 15 16 18 22 22 23 25 24 22 22 21 19 17 15 13 14 14 13 12 10 10 8 9 11 9 7 8 7 8 14 13 7 5
4 3 5 8 8 10 14 16 17 19 21 21 18 14 13 13 15 16 17 16 15 14 15 17 20 20 19 18 17 15 12 10 12 14 15 17 18 17 17 17 15 14 14 13 12 12 14 14 14 15 15 15 16 15 15 17 17 19 21 22 23 24 25 25 24 23 20 17 15 14 13 11 10 10 11 13 10 7 8 8 10 13 10 6 5
10 8 6 6 7 9 13 14 15 17 19 20 19 15 12 11 12 13 16 17 17 17 16 16 18 19 19 19 16 10 8 8 9 11 14 17 18 18 17 17 16 15 13 12 12 13 13 14 18 20 19 17 17 15 12 11 13 15 17 19 21 23 24 25 26 26 26 23 20 18 16 13 13 14 16 14 11 9 7 8 11 12 8 5 4
15 13 11 9 7 8 10 12 15 18 20 20 20 18 14 11 11 12 13 15 16 16 16 17 19 18 15 14 12 8 5 7 7 7 10 14 16 17 16 15 16 16 14 13 14 17 19 20 21 20 18 17 19 19 16 14 15 17 17 19 21 23 25 25 23 22 23 23 21 20 18 16 15 16 18 15 12 10 8 7 10 10 7 5 3
15 14 13 11 8 5 4 5 10 15 18 19 18 17 15 11 11 13 14 13 12 13 15 18 19 17 15 14 12 9 7 7 6 6 6 9 12 13 12 13 14 15 15 15 15 18 21 21 20 19 17 17 19 21 20 18 18 18 18 19 22 25 26 22 19 19 19 19 19 18 18 18 16 17 19 16 12 9 6 7 10 10 7 4 3
15 13 11 10 9 8 6 4 1 3 7 9 9 11 12 11 12 15 17 15 13 13 16 19 17 13 12 11 10 9 6 4 6 6 6 7 9 10 10 11 11 12 14 14 13 14 16 16 15 16 16 16 18 20 18 17 18 18 17 18 21 25 26 22 18 17 17 18 20 20 19 19 19 18 17 15 13 10 8 9 10 8 5 3 3
14 13 12 11 11 11 11 10 8 7 6 6 7 8 9 10 12 15 18 21 19 15 14 16 15 12 10 8 8 8 6 4 5 6 6 7 7 7 8 9 8 8 10 11 10 11 12 13 14 15 14 15 18 19 17 17 18 18 17 17 18 23 27 25 19 17 16 17 19 20 20 21 19 16 15 15 14 12 10 9 8 6 4 2 1
13 13 14 14 13 13 13 12 11 11 10 9 8 8 7 7 8 9 13 19 21 18 13 11 10 9 8 7 6 6 6 6 6 6 5 6 6 6 7 8 7 8 10 10 10 9 9 10 12 12 13 15 17 18 18 18 18 18 17 16 17 23 28 25 18 15 14 14 16 17 17 19 18 15 14 15 13 10 9 9 8 6 5 4 4
13 12 13 15 15 15 15 14 13 12 10 9 9 9 9 7 6 5 4 4 8 12 11 8 8 7 7 7 6 6 7 6 4 3 3 2 4 5 6 7 8 8 9 10 10 9 7 6 8 10 11 14 15 15 16 15 15 17 16 14 17 24 27 24 19 17 15 15 16 15 12 13 13 12 10 8 7 8 8 7 5 5 6 6 5
13 13 13 14 15 15 14 13 13 13 12 11 11 11 11 10 8 7 6 5 4 5 6 6 6 8 10 11 11 10 8 4 2 0 0 1 3 3 3 5 7 7 8 9 10 10 9 6 6 8 10 12 13 13 14 15 16 18 19 19 21 25 25 23 21 20 18 18 20 19 16 14 13 13 14 11 10 9 8 6 5 5 6 4 2
13 14 14 14 14 14 14 13 13 13 14 14 13 12 13 13 12 11 9 7 5 5 6 6 7 10 12 12 12 10 7 4 3 2 2 1 1 1 1 3 5 6 7 9 8 9 9 6 5 7 9 12 15 16 19 20 22 24 25 27 29 30 29 27 24 23 21 18 18 19 19 17 14 14 16 14 12 11 9 7 7 9 9 7 8
13 13 14 14 15 14 14 13 13 14 14 14 13 13 15 15 15 14 13 12 12 11 9 8 7 9 11 11 10 9 7 6 5 5 4 4 3 3 2 0 2 3 4 6 6 6 7 7 8 10 12 13 16 18 19 20 21 22 25 27 30 31 31 28 26 24 23 21 19 18 19 18 15 15 16 15 14 13 12 10 8 9 9 9 10
11 12 12 13 14 14 13 13 13 13 13 13 13 14 14 15 15 14 13 13 13 12 11 11 11 11 11 11 11 10 10 9 9 8 7 6 5 4 2 2 2 3 4 6 7 7 7 9 11 12 12 13 14 15 15 15 16 18 20 21 23 26 26 24 23 23 24 23 22 20 21 21 17 17 18 18 17 16 16 15 12 11 10 10 10
11 12 12 12 12 12 13 13 12 13 13 13 13 13 13 14 16 15 14 13 12 11 10 11 11 10 10 9 10 11 11 10 9 9 8 7 7 5 4 4 5 6 6 8 9 9 10 11 11 9 9 11 11 11 11 12 13 16 17 16 16 18 19 19 19 20 21 23 24 25 23 18 17 21 24 23 22 19 18 17 15 13 12 12 12
10 11 11 12 12 12 12 12 12 12 12 12 13 14 13 13 14 14 13 12 12 11 10 10 9 8 8 7 6 9 12 11 9 9 10 10 9 8 8 7 7 7 8 9 9 9 10 10 8 6 6 9 10 9 10 12 13 15 15 14 13 13 14 15 15 18 21 21 18 14 13 14 19 22 23 23 23 20 16 15 14 12 11 10 10
9 9 10 10 11 12 12 12 13 13 12 12 12 13 13 13 13 13 12 11 10 10 9 9 8 7 7 6 6 9 12 13 12 12 12 11 11 10 9 8 6 5 6 8 9 10 10 8 7 5 5 6 8 10 12 11 11 13 14 13 11 10 8 8 10 12 13 9 9 16 20 23 25 23 22 21 20 18 15 14 13 12 9 8 8
9 9 9 9 9 10 10 11 12 13 14 15 15 14 13 13 13 13 12 10 9 8 8 8 8 8 7 7 6 8 10 11 11 12 11 11 10 9 8 7 6 5 6 8 9 8 9 9 9 7 4 4 6 9 10 10 10 12 13 12 10 8 6 4 2 4 8 15 23 25 25 25 24 22 19 17 16 15 15 15 14 12 8 7 8
8 8 8 8 8 8 8 9 9 10 12 14 17 17 16 14 13 13 14 13 11 9 8 7 7 8 8 8 7 6 7 9 10 10 10 10 10 10 9 9 7 6 6 6 5 5 5 7 9 6 3 2 6 8 9 9 10 11 12 12 11 11 11 12 15 19 22 26 27 25 23 21 18 16 16 16 15 15 16 16 14 12 9 8 8
8 8 8 8 8 7 7 8 7 7 8 9 11 14 15 16 15 14 14 14 14 13 12 11 10 9 8 9 10 9 8 8 9 8 9 9 11 11 11 9 7 6 5 5 5 6 6 5 5 5 4 5 7 8 8 8 9 10 11 12 14 16 18 19 20 21 22 24 23 21 20 19 18 17 17 16 15 15 15 13 11 10 9 8 6
8 8 8 8 8 8 7 6 5 6 6 5 6 7 9 12 14 14 14 13 13 14 14 14 13 12 10 9 10 11 11 10 9 8 8 8 11 13 13 11 8 7 7 7 6 7 7 5 5 8 9 8 8 9 8 7 8 9 10 12 14 16 18 19 20 21 23 23 23 22 21 19 16 15 14 14 13 11 10 10 9 8 7 5 4
7 7 7 7 7 7 6 6 5 4 4 3 2 1 3 7 10 11 11 10 11 11 12 12 12 12 12 10 10 11 11 11 10 9 8 7 9 12 14 14 10 6 7 9 8 6 7 10 11 12 12 11 10 10 9 8 8 8 9 11 12 13 14 15 17 21 23 22 22 22 20 16 12 10 10 11 10 8 8 9 8 6 4 4 3
7 8 7 6 6 6 6 5 5 4 3 2 1 2 2 2 5 7 6 6 7 8 8 9 10 10 10 11 11 10 11 12 11 11 9 7 7 9 11 14 13 9 9 11 11 10 10 12 12 11 12 11 11 11 11 10 8 8 10 11 12 12 12 13 14 17 17 17 17 17 16 14 10 8 8 7 6 6 6 7 6 5 5 5 3
4 5 7 6 5 5 5 5 4 4 4 4 3 3 3 3 1 2 5 7 7 6 5 6 8 9 9 11 12 11 10 11 11 11 9 7 6 6 6 8 11 12 12 12 12 11 10 11 11 11 10 10 10 11 11 11 11 11 12 12 11 12 13 13 14 15 15 15 15 14 13 11 9 7 6 5 7 8 8 7 7 6 6 5 5
3 2 4 6 4 4 5 5 5 5 4 4 5 5 4 2 3 3 2 3 2 2 4 4 5 7 7 9 11 12 11 11 11 11 10 8 8 7 6 5 7 10 11 12 11 11 10 10 10 10 10 10 10 10 10 11 11 12 13 12 11 12 13 13 13 14 14 15 14 13 11 11 10 8 6 7 9 10 10 9 7 6 6 7 8
5 3 2 3 4 4 5 5 5 5 5 5 6 6 5 5 6 4 1 1 4 4 2 4 0 3 3 6 10 11 11 11 11 11 11 11 11 10 9 8 8 9 10 11 11 11 11 11 10 10 10 10 10 10 12 13 13 13 13 13 13 13 13 13 12 12 13 13 13 12 11 12 12 10 9 9 10 10 9 8 7 6 5 6 8
7 6 4 4 5 5 6 5 4 5 6 6 6 6 6 6 7 6 5 5 5 5 3 1 3 4 3 2 6 9 10 10 11 11 11 11 11 9 9 8 9 9 9 10 10 10 11 11 11 10 10 10 10 11 13 14 15 15 15 15 14 14 13 13 13 13 13 13 13 12 12 12 12 12 11 9 8 9 9 8 8 7 7 7 8
7 6 6 6 7 7 8 7 5 5 6 6 6 6 7 7 7 7 8 7 5 5 6 4 3 4 4 3 3 4 4 2 4 8 9 9 9 8 7 8 8 8 8 9 9 9 10 11 11 11 11 10 10 10 11 13 14 14 14 14 14 13 13 13 12 12 12 12 12 11 11 10 10 10 9 7 7 8 7 7 7 7 7 7 7
7 7 7 7 7 8 8 8 7 6 6 6 7 7 7 8 8 8 7 7 6 7 8 7 6 5 1 2 2 7 8 4 1 5 7 7 8 8 7 7 8 7 7 8 8 9 9 9 10 10 10 10 10 10 10 10 11 11 11 11 11 11 11 12 11 10 10 9 9 8 8 8 7 7 6 5 5 6 5 5 5 5 5 5 5
8 6 5 5 7 8 8 9 9 8 8 7 7 8 8 8 8 9 8 8 8 8 9 10 8 2 3 4 0 7 9 5 3 4 5 5 6 7 7 8 7 7 7 7 7 7 8 8 8 9 9 9 9 9 9 9 9 9 10 10 10 10 10 10 9 9 8 7 7 6 5 5 6 6 5 5 5 5 4 4 4 3 3 3 3
8 8 6 6 7 8 8 9 10 10 10 9 8 8 10 9 9 9 9 9 9 8 8 9 5 3 4 2 2 3 6 6 2 3 3 4 5 6 7 7 7 7 7 7 7 7 6 7 7 7 7 7 8 8 8 7 7 8 8 9 8 8 8 8 8 8 8 6 6 6 5 5 6 6 4 4 5 4 3 3 3 2 2 2 2
9 9 8 8 7 7 8 9 9 9 10 9 8 9 10 10 10 10 9 9 10 9 9 9 4 1 0 3 2 3 5 5 1 1 1 2 3 4 4 5 6 7 7 7 7 7 6 6 6 6 6 7 7 7 7 6 6 6 7 7 7 7 7 7 7 8 8 8 8 7 6 6 6 5 3 3 4 3 2 3 3 2 2 2 2
9 9 9 8 8 8 8 9 9 9 9 9 9 10 11 11 10 10 10 10 10 9 10 9 4 2 2 3 3 5 8 6 1 1 2 1 2 2 3 3 4 5 5 5 6 6 6 6 7 7 7 6 7 7 7 6 5 5 4 4 4 3 3 4 5 6 7 8 8 7 7 6 5 4 3 3 3 3 2 2 3 3 2 2 1
9 9 9 9 8 9 8 8 9 9 9 9 10 11 11 12 11 10 11 12 11 10 10 9 5 4 5 5 5 6 8 7 2 1 1 1 2 4 4 3 3 3 5 5 5 4 4 4 4 5 6 6 6 6 7 7 6 6 5 5 4 4 4 6 7 8 10 10 8 6 6 6 5 4 4 3 3 3 2 2 3 3 3 3 3
9 9 10 9 9 9 9 9 9 9 9 10 11 11 11 11 11 11 12 12 11 10 10 9 7 5 6 6 7 7 8 6 2 1 1 2 4 5 4 4 5 4 5 6 5 5 8 9 8 5 4 4 5 5 5 7 7 7 7 8 7 6 7 7 7 8 9 10 7 5 5 6 5 5 5 4 4 4 3 2 3 3 3 4 4
8 9 9 9 10 9 9 10 10 10 10 11 11 11 12 12 12 12 11 11 11 11 9 8 7 7 7 7 7 7 6 4 3 3 3 4 3 3 3 4 5 4 4 4 5 5 7 9 8 5 4 4 4 4 4 5 6 7 8 7 7 6 7 8 8 7 7 7 6 5 5 5 4 4 4 4 3 3 3 3 3 3 4 4 4
7 7 8 8 9 9 9 10 10 10 11 11 11 12 12 12 12 11 11 10 10 10 9 8 7 7 8 7 6 5 5 5 4 3 2 2 3 3 3 2 3 4 3 2 3 4 5 5 5 5 5 4 3 3 4 4 5 6 6 6 8 9 7 5 6 6 5 4 4 4 4 4 4 4 3 3 4 4 4 3 3 3 3 3 4
7 7 7 7 8 8 9 9 10 11 11 11 11 12 12 12 11 11 10 10 9 8 8 8 8 8 7 7 6 5 5 5 4 3 3 3 3 2 2 3 4 6 5 3 2 3 5 5 6 5 4 3 3 3 3 4 4 4 4 6 10 11 7 2 2 3 2 2 3 5 4 4 4 4 3 4 4 4 4 4 3 3 3 3 3
7 7 7 8 8 8 9 9 10 10 11 11 12 12 12 12 11 10 9 10 9 8 8 8 7 7 7 6 5 5 5 4 4 4 4 4 3 2 2 2 4 6 7 6 5 5 4 5 6 5 3 3 3 2 3 4 4 3 3 6 10 10 6 2 1 1 2 2 4 5 3 2 3 3 2 2 3 3 3 3 3 3 4 4 4
6 6 7 7 7 8 9 9 9 9 10 11 11 11 11 11 10 9 9 9 7 6 7 7 7 8 9 6 4 4 4 3 3 3 2 3 3 3 2 2 3 4 6 7 7 6 6 6 5 4 3 3 3 2 3 4 3 2 4 7 8 6 5 4 3 1 2 2 2 4 3 2 3 3 3 3 3 3 3 3 4 4 4 4 3
5 6 6 7 7 8 9 9 9 9 9 9 10 9 9 9 9 9 9 9 6 5 6 6 5 7 7 2 3 3 2 2 2 1 1 2 2 2 2 3 4 4 5 7 7 7 7 6 5 4 3 2 2 3 2 2 2 4 7 7 6 5 4 4 4 3 1 2 2 5 5 3 2 3 3 3 3 3 2 3 3 4 4 3 3
Wind_Direction
191 196 205 211 208 202 202 205 207 211 213 214 214 214 214 215 217 216 216 217 217 215 214 218 220 218 219 221 221 222 220 219 222 222 222 224 228 235 237 228 226 235 245 252 256 259 261 261 262 262 264 267 270 273 274 274 273 269 267 268 267 267 268 262 255 272 284 288 287 284 280 281 288 280 274 279 284 289 297 297 281 276 291 285 251
197 191 196 212 215 207 204 205 206 210 213 214 215 216 215 215 216 217 217 217 217 219 217 217 220 221 223 224 225 225 221 219 224 226 224 223 225 230 232 230 232 239 247 253 255 256 258 258 259 259 259 261 262 266 270 272 272 269 266 266 265 263 257 252 249 258 275 287 285 277 277 291 296 281 271 278 285 289 290 295 291 283 296 307 266
217 200 196 207 212 211 210 209 209 210 213 216 216 216 216 215 215 216 219 219 217 218 220 220 219 220 223 225 225 228 225 221 224 227 227 227 227 231 234 232 232 238 246 250 251 252 253 254 256 256 257 259 259 262 265 268 271 272 270 270 272 271 258 248 253 266 279 287 287 283 286 293 291 283 279 279 282 287 286 288 294 292 301 317 301
225 213 205 209 210 213 214 215 216 214 214 217 219 219 218 216 217 218 219 220 219 217 218 222 222 219 221 224 223 225 226 224 225 228 229 229 231 234 236 236 236 237 241 246 249 251 251 251 252 254 257 259 259 261 262 264 266 268 269 269 269 271 268 264 269 274 280 289 297 301 304 308 307 302 304 306 301 291 287 288 293 294 296 306 312
235 222 211 211 215 219 219 218 218 220 221 220 219 220 220 219 218 219 220 222 223 221 218 219 222 221 220 223 224 224 225 225 227 231 233 233 233 234 236 237 240 241 243 247 249 250 250 251 252 253 254 256 256 256 257 261 263 263 264 263 262 266 268 268 272 278 287 300 310 314 314 316 313 307 312 320 316 309 300 289 286 292 293 295 312
260 250 231 217 216 221 226 226 223 220 222 224 224 222 221 222 221 219 220 221 223 226 224 220 221 222 222 224 224 223 224 227 229 231 235 237 235 236 238 239 240 243 246 248 249 250 250 250 252 252 252 252 255 256 255 256 258 260 262 263 263 268 273 274 276 284 296 306 310 303 295 294 297 295 291 295 303 313 318 311 300 295 294 295 306
236 252 260 252 236 227 225 228 230 228 225 224 226 225 223 224 225 224 223 223 224 227 229 229 225 221 223 229 231 227 223 225 229 231 233 237 238 239 239 241 243 246 250 252 252 252 252 253 253 253 253 252 252 256 258 256 257 263 269 268 259 252 258 274 278 272 276 288 292 285 283 285 287 284 280 281 284 291 307 314 307 294 285 284 299
224 227 237 251 257 253 246 238 232 232 232 228 226 227 226 224 223 224 223 223 226 229 233 236 231 222 224 230 232 229 226 225 226 228 229 233 237 238 239 241 244 247 252 256 258 257 257 258 255 254 259 260 256 256 260 260 260 263 265 265 263 257 253 271 279 264 256 266 272 270 275 281 281 277 281 292 293 283 287 308 308 298 287 272 284
238 234 230 235 244 254 266 273 262 246 235 230 229 224 224 227 224 222 223 222 224 229 239 246 242 232 229 232 232 230 230 229 226 226 227 230 234 236 238 240 243 249 253 254 258 259 260 262 260 257 260 263 262 258 259 261 260 260 267 275 276 270 260 254 259 256 256 264 266 262 265 270 269 267 279 289 297 295 293 303 302 295 291 289 294
257 257 250 247 247 249 259 275 278 267 243 222 224 224 224 232 235 230 231 229 226 226 232 246 254 247 237 236 236 234 235 236 233 227 225 228 232 236 238 239 243 251 255 256 258 259 262 266 268 266 263 264 265 262 260 261 259 260 268 273 271 266 263 259 255 253 256 261 263 265 268 275 276 263 273 284 290 294 296 299 292 285 286 298 315
267 264 260 261 262 263 262 260 267 273 262 231 223 229 229 230 232 237 237 231 230 233 232 235 247 253 249 243 240 236 236 239 239 234 229 228 231 235 239 239 237 241 250 259 262 264 269 274 278 280 277 273 273 275 278 274 268 267 269 266 260 259 260 260 255 251 250 255 265 269 266 275 282 269 269 284 290 292 293 292 281 279 283 295 309
274 270 278 280 274 272 270 259 256 266 269 254 237 229 228 226 228 236 236 229 228 236 239 234 234 243 252 254 257 260 253 240 236 242 241 235 236 242 248 249 241 237 243 254 261 267 271 273 280 289 288 281 276 279 286 285 276 272 271 267 262 260 259 258 257 254 250 252 261 266 265 272 272 253 259 281 289 291 292 295 283 278 280 290 300
331 311 290 280 274 275 273 265 259 259 262 261 251 234 224 224 227 232 234 232 226 227 238 242 240 242 244 246 259 285 297 274 248 247 245 237 240 251 258 261 259 252 249 250 253 263 267 263 266 273 278 284 285 278 278 280 273 268 269 267 265 265 265 263 261 257 253 251 254 255 258 264 255 244 262 279 280 281 294 301 287 275 281 303 310
42 30 358 307 289 285 277 269 266 262 258 260 259 247 229 221 225 230 234 236 233 231 239 245 245 247 246 241 244 267 295 287 265 252 243 235 238 247 254 261 269 274 272 260 251 255 259 261 266 268 268 276 281 277 277 280 272 268 271 272 270 269 268 266 263 262 257 250 249 251 253 253 250 255 268 272 265 263 271 283 284 285 296 305 288
50 44 31 9 341 314 291 273 266 263 260 259 256 252 245 233 227 231 233 233 234 237 240 240 239 240 239 236 236 237 251 262 256 247 244 239 237 240 246 255 266 272 272 266 263 263 262 264 269 272 270 267 266 269 276 282 279 274 276 279 277 275 271 263 260 262 259 251 247 248 252 254 254 261 268 265 257 256 257 267 278 283 283 267 240
50 50 47 39 31 10 323 269 256 260 265 263 254 248 248 240 231 236 239 235 230 231 233 232 233 231 230 235 244 245 247 253 247 239 243 243 242 244 249 254 258 261 261 261 267 268 266 266 267 269 270 268 269 272 275 277 278 277 276 278 279 279 276 270 264 262 258 253 248 244 248 252 250 255 262 260 250 245 251 264 266 266 268 269 252
54 54 53 52 52 56 65 77 82 281 285 286 277 266 262 254 245 246 247 242 234 228 229 228 225 222 223 231 238 236 234 246 247 245 252 255 254 256 257 253 250 252 255 256 259 261 263 265 265 267 270 270 272 275 273 270 272 274 273 275 278 281 281 281 281 274 260 251 248 243 243 245 246 251 256 251 241 238 246 259 261 260 261 280 290
53 53 54 56 58 60 65 65 58 46 24 359 345 326 305 284 268 258 251 244 236 227 224 222 216 214 219 225 230 233 234 233 231 232 242 250 255 261 263 260 254 251 250 250 250 254 258 260 260 263 268 273 277 278 274 271 273 273 270 270 273 277 276 276 278 278 268 259 255 252 250 249 246 245 244 239 237 237 237 241 252 258 252 257 276
52 49 47 50 53 55 57 55 51 47 37 25 16 5 350 328 305 282 261 244 228 211 203 204 205 205 213 221 223 217 212 215 218 218 229 244 256 267 273 276 272 267 264 261 259 258 260 269 273 271 269 275 282 282 277 274 275 273 271 271 272 273 274 274 273 267 257 249 251 256 257 254 245 234 232 236 235 230 223 226 238 242 228 219 201
51 48 43 44 47 51 54 53 52 51 43 35 32 29 24 14 353 333 312 265 206 184 178 188 200 192 180 180 175 165 176 196 210 212 218 244 265 274 289 296 291 284 282 280 279 280 278 283 290 287 281 282 285 282 277 276 276 274 270 268 269 271 274 277 278 274 262 249 249 249 242 241 235 214 202 203 198 195 196 203 216 211 203 217 209
51 49 46 45 46 49 53 53 52 52 48 42 41 41 39 33 22 15 22 35 70 118 125 135 144 131 124 126 121 118 130 142 134 135 231 291 286 284 299 299 296 299 301 296 290 293 298 302 298 293 290 287 283 280 278 276 274 271 266 262 261 264 270 275 279 281 278 265 257 249 236 230 222 197 178 169 170 180 172 148 137 149 170 201 147
53 52 50 47 46 47 49 48 46 47 45 43 41 42 45 46 43 39 41 49 63 78 86 95 99 92 92 97 96 96 101 103 83 52 50 28 301 262 190 267 289 304 307 301 295 297 309 319 305 291 292 290 286 285 284 282 279 274 271 269 267 265 269 274 275 277 276 265 254 248 240 230 210 186 177 173 172 174 165 139 123 132 143 143 124
55 56 53 50 48 47 47 48 47 46 43 40 39 40 43 48 52 53 57 64 66 64 61 61 63 65 68 73 76 80 85 88 88 81 76 79 86 108 128 157 329 340 326 315 312 315 323 319 298 292 299 301 297 294 292 290 289 286 283 280 277 272 271 272 271 269 266 262 256 246 233 221 200 178 172 171 168 165 158 143 125 119 122 121 117
55 55 53 52 52 51 51 51 51 51 48 44 44 43 41 44 48 52 57 64 65 61 52 45 46 48 52 55 59 66 72 75 77 78 74 71 71 73 74 46 10 359 347 332 326 322 314 306 302 305 314 318 314 311 309 307 308 307 302 295 288 279 270 266 265 263 261 260 253 236 223 219 206 184 168 159 150 144 135 123 112 103 99 100 98
54 55 53 51 50 51 54 54 53 52 50 47 47 46 45 48 50 50 51 55 60 63 60 56 55 53 52 52 51 55 60 64 68 65 57 51 49 42 31 17 1 352 344 332 325 320 308 302 307 317 333 341 338 331 329 333 334 331 323 315 305 290 274 264 261 259 257 253 245 233 225 216 193 173 162 149 136 125 116 110 107 100 94 93 93
57 57 56 54 51 48 50 52 51 50 48 48 48 47 48 51 50 50 52 55 58 63 68 71 75 76 72 64 51 47 47 47 44 34 25 22 21 17 13 5 353 344 338 327 321 322 318 311 309 314 338 356 357 348 345 351 352 346 340 334 322 306 288 273 263 261 261 256 240 217 190 161 146 143 141 133 124 116 114 115 112 104 98 96 97
57 56 55 55 53 51 51 51 49 47 45 45 47 46 46 48 49 45 44 46 52 58 63 67 68 68 63 54 45 43 41 37 31 26 20 17 13 9 6 357 340 327 331 326 319 326 331 322 308 307 324 343 353 356 357 359 357 352 352 349 340 332 319 295 278 272 266 242 156 129 127 127 123 117 114 113 112 111 114 114 105 97 99 100 96
51 52 52 53 51 51 54 55 55 54 51 48 48 45 41 41 44 42 39 41 43 41 43 50 51 45 42 35 32 37 37 34 33 30 27 23 15 10 8 0 343 329 327 320 315 329 342 331 315 304 295 324 358 4 2 7 12 9 8 7 5 11 14 7 38 89 111 116 114 113 116 118 115 111 108 105 102 102 103 101 94 88 89 90 86
50 49 46 48 50 52 55 53 55 64 67 62 57 53 51 50 51 49 48 51 53 48 43 45 45 42 40 34 34 39 37 33 34 33 30 28 21 13 10 4 354 342 330 316 315 341 353 335 324 315 289 333 20 19 9 17 29 27 26 33 43 55 68 78 88 97 104 108 108 109 110 110 108 108 106 99 94 94 94 93 92 89 83 82 85
43 45 44 41 33 37 54 57 51 56 68 73 69 63 59 58 57 56 55 55 56 59 60 60 61 61 55 44 40 43 37 28 28 31 31 30 29 26 21 15 7 358 344 327 319 323 311 296 313 344 348 359 23 27 20 26 37 37 42 56 67 77 85 87 89 94 99 102 105 106 106 106 106 106 105 100 99 102 99 94 94 92 83 80 84
33 39 45 41 22 18 39 54 56 57 59 69 82 80 73 66 59 54 56 61 63 64 64 63 63 63 59 46 34 33 31 26 23 25 30 38 40 37 33 27 18 8 9 3 334 315 317 329 4 19 20 22 31 32 28 39 53 55 59 67 74 81 87 89 91 96 98 98 100 101 99 100 103 107 111 111 109 108 95 79 76 78 76 76 81
26 28 33 34 21 15 26 33 37 51 58 60 67 76 102 99 84 67 59 62 66 67 64 59 55 53 51 46 34 27 26 26 24 23 28 44 48 43 38 35 25 10 20 26 13 357 15 28 29 28 30 34 37 36 36 47 64 73 76 77 76 78 82 85 91 97 99 99 100 101 101 101 102 106 115 116 109 102 90 78 71 62 48 51 62
27 25 21 17 13 12 17 16 15 19 21 18 18 346 332 93 105 105 103 96 85 73 59 47 43 43 41 39 35 31 28 26 25 25 27 40 52 48 46 45 42 39 42 41 34 30 31 31 30 32 32 32 34 35 34 38 54 75 83 83 80 78 83 90 93 92 94 97 98 99 102 104 103 103 107 102 83 77 85 86 76 52 29 23 21
18 17 13 6 359 359 3 1 0 359 352 344 334 318 323 344 8 158 163 151 132 113 89 51 32 29 32 31 29 30 32 29 26 26 29 40 48 39 37 50 52 51 50 46 41 38 37 35 36 36 34 34 39 42 39 36 43 59 70 73 73 72 76 86 88 87 91 96 95 93 95 95 91 85 77 53 36 41 48 50 50 44 25 9 359
323 337 14 11 356 346 352 354 349 342 341 335 318 308 314 315 275 241 181 150 163 159 132 99 30 10 25 34 27 27 34 37 34 35 40 45 41 27 21 37 49 49 49 48 44 41 42 43 42 41 43 45 48 52 55 52 54 63 69 72 73 69 66 68 73 77 82 83 79 77 76 72 68 64 53 35 32 38 40 37 35 28 12 4 1
318 297 324 349 344 340 344 345 339 331 327 317 305 304 305 288 269 258 201 197 271 270 186 136 141 321 8 34 26 26 37 43 43 46 50 49 42 35 33 39 43 42 42 44 45 42 41 42 43 44 48 52 54 59 67 72 76 81 82 83 83 77 70 68 70 74 75 73 70 68 65 59 53 48 45 43 41 40 39 31 21 14 10 6 353
317 314 320 333 338 332 323 317 314 318 315 303 292 292 290 286 290 293 283 264 263 275 288 261 223 223 207 91 35 28 35 45 49 47 45 41 40 40 41 42 41 41 40 41 43 43 42 43 44 45 48 53 58 60 65 72 78 81 80 80 81 78 73 72 74 74 70 64 59 54 51 48 44 40 41 43 39 33 30 21 10 5 5 357 338
297 296 299 310 318 314 307 299 290 289 293 288 283 286 284 281 285 288 288 290 295 292 287 276 241 225 207 157 75 5 343 9 47 36 29 28 28 32 41 45 43 43 44 43 43 45 45 44 45 46 48 51 55 58 62 68 73 74 73 72 72 71 70 68 68 70 70 66 60 54 47 42 38 34 33 36 32 24 16 7 358 355 352 344 335
297 285 273 281 297 299 293 290 288 286 286 286 286 288 289 287 285 282 281 284 286 284 282 276 265 264 264 92 8 311 297 282 37 23 16 23 28 27 35 43 44 43 44 42 41 44 45 45 45 45 45 46 49 55 62 65 65 65 67 67 65 64 63 59 55 55 57 59 59 55 48 40 34 29 26 23 13 360 347 342 343 342 339 338 343
303 288 268 273 289 290 286 286 286 281 276 278 283 285 284 284 287 289 287 282 276 277 283 288 290 302 98 109 15 306 309 325 45 36 11 18 26 26 31 38 40 41 45 44 40 38 39 41 44 43 42 43 46 49 55 61 64 64 64 64 65 64 60 58 55 53 50 46 40 33 27 17 11 7 359 343 332 324 317 314 316 322 333 346 356
303 297 290 283 281 281 279 277 277 277 278 282 290 292 287 284 285 287 288 288 285 277 272 278 298 45 90 136 198 270 295 310 5 52 25 20 24 22 27 33 32 32 36 34 31 32 35 37 38 37 35 37 41 45 49 53 58 62 61 58 57 56 52 51 48 41 32 24 15 6 359 354 350 345 335 324 317 307 300 306 313 329 352 355 359
302 299 298 290 280 279 281 279 278 280 281 280 279 278 278 280 283 285 285 286 288 287 277 272 273 88 48 280 217 193 243 273 344 51 301 344 32 24 15 20 21 23 27 27 22 21 22 24 27 32 32 28 27 33 41 41 44 56 62 57 52 51 50 48 45 35 23 12 1 349 338 332 327 318 311 315 312 304 314 334 344 353 353 347 357
300 296 296 294 290 289 289 290 289 284 279 277 278 278 278 279 280 282 283 282 281 283 282 278 264 174 202 243 214 215 245 260 248 178 264 307 25 337 328 8 22 13 12 18 19 17 22 30 32 26 24 23 21 22 27 30 31 40 50 50 54 58 39 11 359 350 341 335 334 334 329 324 318 313 314 326 326 323 337 359 359 352 347 341 327
297 291 287 286 286 287 288 289 289 287 285 285 285 283 283 285 284 283 283 281 277 276 279 278 259 194 189 203 207 231 257 266 252 128 78 46 322 295 305 6 28 338 331 358 12 1 349 358 5 357 355 3 12 14 17 21 21 18 8 357 2 15 7 351 341 335 329 325 323 325 329 328 327 326 330 341 346 337 339 5 9 356 339 320 315
289 286 285 286 287 288 289 288 287 287 286 284 279 274 273 276 278 278 279 279 277 274 274 271 255 223 206 207 219 241 259 265 257 242 266 275 276 283 311 11 27 359 339 354 1 336 330 341 351 350 343 345 350 359 9 16 18 16 7 358 360 6 2 351 344 342 342 340 339 338 333 331 335 344 349 349 346 340 340 346 341 331 322 317 322
291 292 294 296 296 295 294 295 296 295 292 290 287 284 282 281 280 280 281 282 280 277 273 269 258 244 234 231 237 248 256 253 234 237 262 282 296 302 317 357 18 7 336 338 348 340 340 351 356 347 336 337 340 346 359 6 11 15 17 17 17 10 355 345 343 344 345 344 340 335 329 324 325 338 347 345 336 336 340 335 324 328 333 325 318
295 296 295 295 294 294 294 294 294 293 291 289 288 287 286 285 284 285 286 286 283 279 275 269 259 253 251 249 245 244 248 245 228 214 232 281 314 318 300 304 335 334 315 309 335 336 336 343 341 332 332 340 337 334 341 349 359 9 20 25 19 8 358 350 348 341 330 326 332 331 322 315 312 316 330 332 324 322 326 324 322 332 334 323 314
301 299 297 297 294 293 294 295 294 292 290 291 293 294 294 292 288 287 286 284 280 278 274 268 261 255 256 254 248 241 241 235 218 202 207 225 246 274 276 280 316 334 333 329 346 344 335 331 329 327 327 328 330 335 341 342 349 7 22 16 5 360 355 353 348 329 291 277 322 328 319 314 316 321 335 342 338 335 334 333 333 334 326 316 316
310 308 310 312 309 306 307 307 306 304 302 302 301 300 298 295 293 292 286 280 277 278 279 275 268 265 264 259 247 239 234 221 217 228 232 223 219 232 267 292 316 330 330 330 343 349 331 317 316 313 308 314 321 324 327 332 346 19 27 3 355 355 355 7 17 288 218 245 328 336 332 328 326 323 324 336 341 341 336 331 329 326 319 314 315
311 311 313 314 313 312 311 309 308 311 313 312 309 306 303 300 301 299 293 289 291 301 301 296 291 287 282 266 226 219 225 213 209 225 224 211 218 234 266 289 302 313 316 317 324 325 317 313 309 293 281 295 303 305 327 345 7 29 357 343 345 351 357 10 20 6 234 236 357 0 352 344 341 331 317 312 320 330 335 334 330 325 320 317 319
304 306 309 312 315 316 315 314 313 316 322 323 321 320 321 321 321 317 308 304 311 328 326 315 305 299 297 274 161 170 197 187 173 159 125 154 204 233 267 287 294 301 303 304 307 310 309 305 293 273 261 262 273 291 319 333 325 329 333 334 341 348 343 351 15 24 183 170 67 13 353 343 357 356 347 340 336 335 338 339 332 325 321 319 323
Height
804 805 807 809 809 810 812 813 815 816 817 818 819 820 821 822 823 824 825 827 828 829 830 831 832 832 833 834 834 835 836 837 838 838 839 840 840 840 840 840 840 841 841 841 840 839 839 839 839 839 839 839 838 837 836 835 835 834 834 834 834 835 835 836 835 834 833 833 833 832 831 831 830 829 830 830 829 828 827 826 825 824 823 822 820
801 803 806 809 808 807 809 811 813 814 815 816 816 817 818 819 821 822 823 824 825 826 827 828 829 830 831 831 832 833 834 835 836 836 837 837 838 838 838 839 839 839 839 839 838 838 838 838 838 838 838 837 836 836 834 833 833 832 832 832 832 832 833 833 833 833 833 832 832 831 830 830 829 829 829 829 829 828 827 826 825 823 822 821 820
798 800 803 805 805 805 806 809 810 811 812 813 814 815 816 817 818 819 820 821 822 824 825 826 827 828 829 830 830 831 832 833 834 834 835 835 836 836 836 836 837 837 837 837 837 837 836 836 836 836 835 835 834 834 833 832 832 831 831 831 830 830 831 831 832 832 831 831 831 830 829 830 830 830 830 829 828 828 827 826 825 823 822 821 820
796 796 799 801 801 802 804 806 807 808 809 810 811 812 813 815 816 817 818 819 820 821 823 824 825 826 827 828 828 829 830 830 831 832 832 833 834 834 834 834 835 835 835 835 835 834 834 834 833 833 833 833 833 832 832 831 831 830 830 830 830 830 830 830 831 831 830 830 831 831 831 831 831 831 831 830 829 828 827 826 825 824 822 821 820
796 796 797 799 800 801 801 803 804 806 807 808 808 810 811 812 813 815 816 817 817 818 820 821 822 823 824 825 826 827 827 828 829 830 830 831 831 832 832 832 833 833 833 833 832 832 832 832 831 831 832 831 831 831 830 830 830 829 829 829 829 829 829 829 830 831 830 830 831 832 832 832 831 831 830 831 831 830 828 826 825 824 823 822 820
797 798 798 799 800 801 801 801 801 803 805 806 807 808 809 809 810 812 813 814 816 816 817 818 819 821 822 823 823 824 825 826 827 827 828 828 828 829 829 830 830 830 830 830 830 830 830 830 830 830 830 829 829 829 829 829 829 828 828 828 827 828 829 829 829 829 829 830 830 831 831 831 830 829 830 830 830 830 828 827 826 825 823 822 821
798 799 800 800 801 801 800 800 800 801 803 804 805 806 807 808 808 809 811 812 814 815 815 816 817 818 819 820 821 822 822 823 824 825 826 826 826 827 827 827 828 828 828 828 828 828 828 828 829 829 829 828 828 828 828 828 828 827 828 828 827 827 827 827 827 827 827 828 829 829 829 829 828 829 829 829 829 827 827 827 827 826 824 821 820
797 798 800 801 802 802 801 801 800 801 802 803 804 805 805 806 806 807 808 810 811 812 813 814 815 815 817 818 819 819 820 820 821 822 823 824 824 824 825 825 825 825 826 826 826 826 826 826 827 827 828 828 827 827 828 828 827 827 828 828 826 826 826 827 827 827 827 827 827 828 828 828 827 827 828 828 827 826 827 829 830 829 824 820 818
798 799 800 801 802 802 803 803 802 801 802 802 803 804 804 804 805 805 807 807 808 809 811 812 813 814 815 816 816 817 817 817 818 819 820 821 822 822 822 823 823 824 824 825 825 825 824 825 825 825 826 827 827 827 828 828 827 827 827 827 826 826 826 827 827 826 826 826 826 826 826 826 825 825 825 826 826 827 827 829 832 832 826 819 818
798 799 800 801 802 802 803 805 805 805 803 802 803 803 803 804 804 805 805 806 807 808 809 810 811 812 812 812 813 814 815 815 816 817 818 819 820 820 820 821 822 823 823 823 824 824 824 824 824 824 825 826 827 827 827 827 827 827 827 827 826 825 825 826 825 825 825 825 825 824 823 823 824 824 823 823 824 826 825 826 829 831 827 820 819
798 799 799 801 802 803 803 804 806 807 805 803 803 803 804 804 804 804 804 805 806 807 807 808 809 810 811 811 811 811 813 814 814 815 817 818 819 819 820 820 820 821 822 822 822 823 823 823 824 824 825 825 825 826 827 827 827 826 826 826 826 826 825 825 824 823 824 823 822 822 821 821 822 822 821 821 822 823 824 823 824 827 825 820 818
798 798 799 800 801 801 801 802 803 805 806 805 803 803 803 803 803 803 803 804 805 806 806 807 806 808 809 809 810 811 813 812 812 814 817 819 820 820 820 820 820 820 820 821 822 822 821 822 823 824 825 825 824 825 827 827 827 827 827 826 825 825 825 824 823 822 821 821 820 820 819 819 820 820 819 820 820 821 821 821 822 823 821 817 816
797 798 799 800 799 799 799 799 800 803 805 806 803 801 802 802 801 801 802 803 804 804 805 806 805 806 807 807 808 811 813 812 812 814 816 817 819 820 820 819 819 818 819 819 820 821 820 820 820 821 822 822 823 824 825 824 823 824 825 825 824 824 824 823 821 820 820 819 818 817 817 818 818 817 817 818 818 818 818 818 819 820 818 816 816
796 797 798 798 797 797 796 797 798 800 802 804 803 802 801 801 800 800 800 801 802 802 803 804 804 805 806 807 808 810 812 813 813 813 814 815 817 818 818 818 818 818 819 819 819 819 819 818 818 818 819 819 821 823 823 822 821 822 822 822 822 822 821 820 819 818 818 817 816 815 815 816 816 815 816 816 816 816 815 816 817 818 817 815 815
797 798 798 797 796 796 796 797 798 799 800 802 803 802 801 799 799 798 799 799 800 800 801 802 802 804 805 806 808 809 810 811 813 813 813 815 816 817 816 816 817 817 818 818 818 818 817 816 816 817 817 818 819 820 821 821 821 821 820 821 822 821 820 818 818 817 817 816 814 813 813 814 814 814 814 814 815 814 813 814 815 816 815 814 814
799 800 800 799 799 798 798 800 800 800 801 801 801 801 800 798 798 797 797 798 798 798 799 799 800 802 804 806 807 809 808 808 810 812 813 815 815 815 816 816 815 815 815 816 816 816 816 815 814 815 815 817 818 819 819 819 819 819 819 819 821 822 819 817 815 815 814 813 813 812 811 812 812 812 812 812 813 813 812 812 814 814 813 813 814
801 803 803 803 802 800 800 800 800 800 800 800 800 800 798 797 796 796 796 796 797 797 797 797 798 800 802 804 806 808 808 807 808 809 811 813 814 814 815 815 814 813 813 814 814 814 813 813 813 813 814 816 817 816 816 816 815 816 817 816 817 818 817 815 812 810 811 811 810 809 808 808 809 809 810 811 811 811 811 811 812 812 811 811 813
804 804 804 805 804 802 801 800 800 800 799 799 799 798 798 797 796 795 795 795 795 796 796 796 798 799 801 803 805 806 807 806 806 807 808 811 812 813 814 813 813 812 812 812 812 811 810 810 810 812 813 813 814 813 814 813 811 812 813 812 812 812 813 813 809 806 807 808 808 808 806 805 805 806 808 809 808 808 809 809 809 810 810 810 811
806 805 805 805 804 803 802 801 801 800 800 800 799 798 798 797 796 795 795 793 792 793 794 796 798 799 801 803 804 805 806 806 807 806 805 807 810 812 812 812 812 812 811 811 810 808 808 808 808 808 809 809 810 810 810 810 809 808 808 809 809 808 809 811 807 804 804 805 806 805 804 803 803 804 805 806 806 806 807 807 808 808 808 809 810
807 806 806 805 805 804 804 804 804 803 803 802 801 800 799 798 797 797 796 794 792 791 792 796 799 799 800 801 802 804 806 806 807 805 804 806 808 810 812 811 811 811 810 810 809 807 806 806 806 806 806 806 806 806 807 807 806 805 805 806 807 807 808 809 806 803 802 802 803 803 802 801 801 802 802 803 804 805 805 805 806 806 806 807 807
808 808 807 806 806 806 806 807 806 805 805 804 803 801 800 799 799 797 795 795 795 795 795 797 799 799 798 799 801 803 804 805 806 805 804 805 807 809 810 811 810 810 810 809 808 807 806 806 805 805 804 803 803 803 804 804 804 804 803 804 805 805 805 804 802 800 800 800 800 801 800 799 799 799 800 801 801 802 804 804 804 804 804 804 804
810 810 809 808 808 808 808 808 807 807 806 805 804 803 801 800 799 798 797 797 798 799 799 799 799 799 799 799 801 803 804 805 806 806 805 805 806 807 809 809 809 809 809 809 808 806 806 805 805 804 803 803 802 801 802 802 802 801 801 801 801 801 800 799 798 797 798 798 798 798 797 797 797 796 797 798 798 799 802 804 803 802 802 802 802
812 811 811 810 810 809 809 808 808 808 807 806 805 804 803 802 801 800 799 799 800 801 802 802 802 802 801 802 803 804 806 806 805 805 805 805 806 807 808 808 808 808 808 808 807 806 806 805 804 803 803 803 801 800 800 799 799 798 797 796 795 795 795 795 794 794 795 795 795 795 795 795 795 795 795 796 797 797 799 801 802 802 803 802 802
813 812 812 812 811 811 810 810 810 809 809 808 807 806 805 804 803 803 802 801 802 803 804 804 804 805 805 805 806 807 808 806 805 805 806 806 806 807 807 808 808 807 808 808 807 806 805 804 803 803 803 802 800 799 798 797 796 795 794 792 791 790 791 791 791 791 792 792 791 791 792 792 792 793 793 794 796 797 797 799 802 804 805 804 804
814 813 813 813 812 812 812 811 811 811 810 810 809 808 808 807 806 806 805 805 805 805 805 806 806 808 809 810 810 810 809 808 807 807 806 806 807 807 807 807 807 807 807 807 807 806 804 803 803 802 801 800 799 798 797 796 795 794 792 791 789 788 788 788 789 789 789 789 788 788 789 790 791 792 792 792 795 798 799 800 802 804 806 806 805
815 815 815 815 815 814 813 813 813 812 812 811 811 810 810 809 809 809 808 808 808 808 808 809 810 811 813 813 813 812 810 809 808 807 806 807 807 807 807 807 807 807 807 807 807 805 804 803 802 801 800 799 798 798 797 796 795 794 792 790 788 787 786 786 787 786 786 786 787 787 788 790 792 794 794 793 794 798 802 803 803 804 806 806 806
817 817 817 817 817 816 816 815 815 814 814 813 813 813 812 812 812 812 811 811 811 811 811 812 812 813 813 814 813 812 811 810 809 808 807 807 808 807 807 807 807 808 807 807 806 805 804 802 801 801 800 799 798 798 797 796 795 793 792 790 788 787 786 786 785 785 785 785 786 787 789 791 793 796 798 798 798 800 803 804 804 804 805 806 806
819 818 818 818 818 818 818 818 817 817 817 816 816 815 815 814 814 814 813 813 813 813 813 813 813 813 814 814 814 813 812 811 810 809 809 809 809 809 808 808 808 807 807 807 806 804 803 802 801 800 799 799 799 799 798 797 796 794 792 791 789 788 787 786 786 785 785 786 787 790 793 795 796 798 800 802 802 802 803 804 804 805 806 806 806
820 820 820 820 820 819 819 819 819 819 820 820 819 818 818 817 817 816 816 815 814 814 814 814 815 815 815 815 815 814 814 813 812 811 811 810 810 810 808 808 808 807 806 806 805 804 803 802 801 800 800 799 800 799 799 798 797 796 794 792 791 790 789 789 788 788 788 789 791 794 797 799 801 802 803 804 805 804 804 805 806 806 806 806 808
821 821 821 821 821 820 820 821 821 820 821 821 821 821 821 820 820 819 818 818 817 817 816 816 816 817 817 817 817 816 815 814 813 812 812 811 811 810 809 808 807 806 806 805 804 803 802 802 801 801 800 799 799 800 800 799 798 798 796 795 794 793 793 793 793 793 793 793 794 796 799 801 803 805 806 806 806 806 806 806 806 807 806 807 809
823 822 822 823 823 822 821 822 822 822 822 822 822 823 822 822 822 821 821 820 820 819 819 819 819 818 819 819 818 817 816 815 814 813 813 812 812 811 810 809 808 807 806 805 804 803 802 802 801 801 800 800 800 801 801 801 800 800 799 798 798 797 797 797 797 796 796 796 797 799 801 803 805 807 807 807 807 806 806 806 807 808 808 808 810
825 824 824 825 824 824 823 823 823 823 823 823 823 822 822 822 822 823 823 822 822 822 821 821 821 820 820 819 819 818 817 816 815 814 813 813 812 812 811 810 809 808 807 806 805 804 803 803 803 803 803 803 803 803 803 802 802 802 801 801 801 801 801 801 800 799 799 799 800 801 803 805 808 809 809 808 807 807 807 807 808 809 809 810 811
826 826 826 826 826 825 825 824 824 823 823 823 822 822 821 821 821 822 823 823 822 822 822 822 822 821 821 820 820 819 818 817 816 815 815 814 813 813 812 811 810 809 808 807 807 807 806 806 806 805 806 806 805 805 805 805 804 804 803 803 803 804 804 804 804 803 803 803 803 804 805 807 810 810 809 809 808 808 808 808 809 810 810 811 812
827 827 827 827 827 826 826 825 825 824 824 823 823 822 821 821 821 821 822 822 822 822 822 823 823 822 822 821 820 820 819 818 817 817 816 815 814 813 813 812 811 811 810 810 809 809 809 809 808 808 808 808 808 808 808 807 806 805 805 806 806 806 807 807 806 806 806 805 806 806 807 808 810 810 810 810 809 809 809 810 811 812 812 813 813
828 827 828 828 827 827 826 826 826 825 825 824 823 822 821 821 821 820 820 821 821 821 822 822 823 822 822 822 821 820 820 819 818 817 817 816 815 814 813 812 812 812 812 812 812 812 811 811 811 811 811 810 810 809 809 809 808 808 808 808 808 808 809 809 809 809 809 808 808 808 809 809 810 810 811 811 811 811 811 812 813 814 815 815 815
827 827 827 827 827 827 827 826 826 826 825 825 824 823 821 821 820 819 819 820 820 819 820 821 822 822 822 822 821 821 820 819 819 818 818 817 816 814 814 813 813 813 813 813 813 814 813 813 813 813 813 812 812 811 811 810 810 810 810 810 810 810 811 811 811 811 811 811 811 811 811 811 811 812 813 813 814 814 814 815 816 817 816 816 816
828 827 827 827 828 828 827 827 826 826 825 825 824 823 821 820 819 818 818 818 818 818 818 820 821 821 822 821 821 821 820 820 819 819 819 818 817 816 816 815 815 815 815 815 815 815 815 815 815 815 815 815 815 814 813 813 813 813 813 813 813 813 813 813 813 813 813 813 814 814 814 814 815 815 816 816 816 816 817 818 818 818 817 817 817
828 827 827 828 828 828 828 827 826 825 825 824 823 822 821 820 819 819 818 818 818 818 818 819 819 820 820 820 821 821 820 820 819 819 820 819 818 818 818 817 817 817 817 817 817 817 817 817 818 817 817 817 817 817 816 816 816 816 816 816 816 816 816 816 816 815 815 816 816 817 817 818 818 818 818 819 819 818 818 819 819 818 818 817 817
827 827 828 828 828 828 827 826 825 824 824 823 822 822 821 820 819 818 818 818 819 819 819 818 818 818 819 819 820 821 820 819 819 820 821 821 821 820 820 819 819 819 819 819 819 819 819 819 819 819 819 819 819 819 819 818 818 818 818 818 818 818 819 819 818 818 818 819 819 819 820 820 820 820 820 820 820 820 820 820 819 818 817 817 816
828 827 827 827 828 827 826 825 825 823 822 822 821 821 820 819 819 818 818 818 818 819 819 818 818 817 818 819 820 821 820 819 819 821 822 822 823 823 822 821 821 821 821 822 821 821 821 821 821 821 821 821 821 821 821 821 821 821 820 820 820 820 820 821 821 821 821 821 821 821 821 821 820 820 820 820 820 820 820 819 819 818 817 817 816
828 827 827 827 827 826 825 825 824 822 821 821 821 820 820 819 818 818 818 817 817 818 818 819 819 819 819 820 821 822 821 820 820 821 822 823 824 824 824 824 824 823 823 823 823 823 823 823 823 823 823 822 822 822 822 822 822 821 821 822 822 822 822 822 822 822 822 822 822 822 822 821 821 820 820 820 820 820 819 819 818 817 816 816 816
828 828 827 826 826 825 824 823 823 822 821 821 821 821 821 819 818 818 818 818 818 818 817 818 819 820 820 821 821 822 821 820 820 821 822 823 824 824 825 825 825 825 825 825 825 825 824 824 824 824 824 824 824 823 823 823 823 822 822 822 823 823 823 823 823 823 823 823 823 823 822 822 821 821 820 820 819 819 819 818 817 817 816 816 816
828 827 826 826 825 824 823 823 822 821 821 820 820 820 820 819 818 818 818 818 818 818 817 817 818 820 821 821 822 822 821 820 820 821 821 822 824 824 824 824 825 826 826 826 826 827 826 826 826 826 826 826 826 825 825 825 824 824 824 824 823 824 824 823 823 823 823 823 823 823 823 822 822 821 820 820 819 819 818 818 817 817 817 817 817
828 827 826 824 823 822 822 822 821 821 820 820 820 820 819 819 819 819 818 818 817 817 817 817 818 819 821 821 821 822 821 820 821 822 822 823 824 824 824 824 825 826 826 826 827 828 827 826 826 827 827 827 827 827 827 826 825 825 825 824 824 824 823 823 824 823 823 822 822 823 823 822 821 821 820 819 819 818 818 817 818 817 817 817 817
827 825 824 822 822 821 820 820 820 820 820 819 819 818 818 818 818 818 818 817 816 817 817 817 817 819 820 820 821 821 820 820 821 822 823 823 824 824 825 825 826 827 827 827 828 828 826 824 824 826 827 828 828 828 828 827 827 826 826 825 825 824 824 824 824 824 823 822 822 822 822 822 821 821 820 820 819 819 818 818 818 818 818 818 818
825 824 823 822 821 820 820 819 819 819 819 819 818 817 817 817 817 817 817 817 816 816 816 817 817 818 818 819 820 820 820 820 821 822 823 824 824 825 826 826 827 828 829 829 829 829 828 827 827 828 829 829 829 829 829 828 828 828 827 826 826 826 825 825 825 824 824 823 823 822 822 822 821 821 821 820 820 819 819 819 819 819 819 819 819
824 823 823 822 821 820 820 820 820 819 819 818 818 817 817 816 816 816 816 816 816 816 816 816 817 817 817 817 818 819 819 820 821 822 824 825 825 826 827 827 828 829 829 829 829 829 830 830 830 830 830 830 829 830 829 829 829 829 828 827 826 826 825 825 825 824 824 824 823 823 823 822 821 821 820 820 820 820 819 819 819 820 820 820 820
823 822 822 821 820 820 819 819 819 818 818 817 817 817 816 816 816 816 815 815 815 815 815 815 816 816 816 817 818 819 819 820 821 822 824 825 826 827 827 828 828 829 829 829 829 829 830 830 830 830 830 830 830 830 830 830 829 829 828 827 827 826 825 825 825 824 824 823 823 823 823 822 822 821 821 821 821 821 820 820 820 820 821 821 820
823 822 821 821 820 820 819 819 819 818 818 817 817 817 817 816 815 815 815 814 814 814 814 814 815 815 816 817 817 818 819 820 821 822 823 824 826 827 827 828 829 830 829 829 829 829 830 830 830 830 831 831 831 830 831 830 830 829 828 828 827 826 826 825 825 824 824 823 823 823 823 823 822 822 822 822 822 822 821 821 821 821 821 820 820
824 823 823 822 822 821 820 820 820 819 819 819 819 818 817 816 815 815 814 814 814 814 814 815 816 816 816 816 817 818 819 820 821 823 824 825 826 827 828 829 830 830 830 830 830 830 830 830 830 831 831 831 831 831 831 830 830 829 829 828 828 827 826 826 825 824 824 823 823 823 823 823 823 822 821 821 821 821 821 821 821 821 821 820 820
824 824 823 823 822 822 822 821 820 820 820 820 820 819 818 817 816 815 814 814 814 814 815 815 816 817 817 817 818 819 820 821 822 823 824 825 826 827 828 829 830 830 831 831 830 830 830 830 830 831 831 831 831 831 831 830 830 829 829 828 828 827 827 826 826 825 824 824 823 823 823 823 823 823 822 822 821 821 821 822 822 821 821 820 819